TimeCST,TemperatureF,Dew PointF,Humidity,Sea Level PressureIn,VisibilityMPH,Wind Direction,Wind SpeedMPH,Gust SpeedMPH,PrecipitationIn,Events,Conditions,WindDirDegrees,DateUTC
12:54 AM,23.0,19.9,88,30.43,9.0,South,3.5,-,N/A,,Clear,190,2012-12-30 06:54:00
1:54 AM,25.0,21.0,85,30.45,9.0,Calm,Calm,-,N/A,,Clear,0,2012-12-30 07:54:00
2:54 AM,23.0,19.9,88,30.46,9.0,Calm,Calm,-,N/A,,Clear,0,2012-12-30 08:54:00
3:54 AM,23.0,19.0,85,30.46,9.0,Calm,Calm,-,N/A,,Clear,0,2012-12-30 09:54:00
4:54 AM,23.0,19.0,85,30.47,9.0,Calm,Calm,-,N/A,,Clear,0,2012-12-30 10:54:00
5:54 AM,23.0,21.0,92,30.50,9.0,Calm,Calm,-,N/A,,Clear,0,2012-12-30 11:54:00
6:54 AM,23.0,19.0,85,30.51,9.0,Calm,Calm,-,N/A,,Clear,0,2012-12-30 12:54:00
7:54 AM,24.1,21.0,88,30.52,7.0,South,4.6,-,N/A,,Partly Cloudy,190,2012-12-30 13:54:00
8:54 AM,30.0,26.1,85,30.54,7.0,Calm,Calm,-,N/A,,Partly Cloudy,0,2012-12-30 14:54:00
9:54 AM,35.1,25.0,67,30.54,8.0,Calm,Calm,-,N/A,,Scattered Clouds,0,2012-12-30 15:54:00
10:54 AM,37.9,23.0,55,30.53,10.0,Variable,4.6,-,N/A,,Scattered Clouds,0,2012-12-30 16:54:00
11:54 AM,39.9,21.9,49,30.49,10.0,Variable,4.6,-,N/A,,Mostly Cloudy,0,2012-12-30 17:54:00
12:54 PM,41.0,21.0,45,30.48,10.0,Calm,Calm,-,N/A,,Mostly Cloudy,0,2012-12-30 18:54:00
1:54 PM,42.1,21.9,45,30.46,10.0,SSE,3.5,-,N/A,,Mostly Cloudy,150,2012-12-30 19:54:00
2:54 PM,42.1,23.0,47,30.45,10.0,South,5.8,-,N/A,,Mostly Cloudy,170,2012-12-30 20:54:00
3:54 PM,42.1,24.1,49,30.44,10.0,Calm,Calm,-,N/A,,Mostly Cloudy,0,2012-12-30 21:54:00
4:54 PM,39.0,24.1,55,30.44,10.0,SSW,3.5,-,N/A,,Mostly Cloudy,210,2012-12-30 22:54:00
5:54 PM,37.9,27.0,65,30.43,10.0,Calm,Calm,-,N/A,,Scattered Clouds,0,2012-12-30 23:54:00
6:54 PM,37.0,27.0,67,30.41,10.0,Calm,Calm,-,N/A,,Scattered Clouds,0,2012-12-31 00:54:00
7:54 PM,35.1,27.0,72,30.41,9.0,Calm,Calm,-,N/A,,Scattered Clouds,0,2012-12-31 01:54:00
8:54 PM,35.1,28.0,76,30.40,9.0,Calm,Calm,-,N/A,,Scattered Clouds,0,2012-12-31 02:54:00
9:54 PM,35.1,27.0,72,30.38,7.0,SE,3.5,-,N/A,,Mostly Cloudy,140,2012-12-31 03:54:00
10:54 PM,36.0,25.0,64,30.35,10.0,SE,6.9,-,N/A,,Mostly Cloudy,130,2012-12-31 04:54:00
11:54 PM,36.0,25.0,64,30.34,10.0,SSE,3.5,-,N/A,,Mostly Cloudy,160,2012-12-31 05:54:00